Regional Weather Roundup
Issued by NWS Little Rock, AR

Home | Current Version | Previous Version | Graphics & Text | Print | Product List | Glossary On
Versions: 1 2 3 4 5 6 7 8 9 10 11 12 13 14 15 16 17 18 19 20 21 22 23 24 25 26 27 28 29 30 31 32 33 34 35 36 37 38 39 40 41 42 43 44 45 46 47 48 49 50
000
ASUS44 KLZK 292105
RWRLZK

WEATHER ROUNDUP FOR ARKANSAS
NATIONAL WEATHER SERVICE LITTLE ROCK AR
400 PM CDT WED MAR 29 2017

NOTE: "FAIR" INDICATES FEW OR NO CLOUDS BELOW 12,000 FEET WITH NO
SIGNIFICANT WEATHER AND/OR OBSTRUCTIONS TO VISIBILITY.

ARZ001-003-010-029-292200-
NORTHWEST ARKANSAS

CITY           SKY/WX    TMP DP  RH WIND       PRES   REMARKS
FAYETTEVILLE   PTSUNNY   72  59  63 S18       29.71F
FORT SMITH     CLOUDY    74  56  53 S13G22    29.71F
HARRISON       CLOUDY    70  58  65 S13G20    29.75F
BENTONVILLE    CLOUDY    72  55  56 S16G26    29.71F
ROGERS         CLOUDY    70  57  63 S20G25    29.71F
SILOAM SPGS    PTSUNNY   72  55  56 S26G39    29.69F
HIGHFILL       CLOUDY    72  57  59 S24G38    29.69F
SPRINGDALE     CLOUDY    70  59  68 S16       29.73F
$$

ARZ004-005-016-292200-
NORTH CENTRAL ARKANSAS

CITY           SKY/WX    TMP DP  RH WIND       PRES   REMARKS
BATESVILLE     CLOUDY    79  61  53 S15G21    29.78F
FLIPPIN        CLOUDY    75  55  50 S9G21     29.72F
MTN HOME       CLOUDY    75  58  55 SW12G18   29.75S
$$

ARZ040-041-292200-
WEST CENTRAL ARKANSAS

CITY           SKY/WX    TMP DP  RH WIND       PRES   REMARKS
MENA           CLOUDY    72  68  88 SW6       29.74F
MOUNT IDA      CLOUDY    77  62  59 S8G16     29.71F
$$

ARZ009-017-025-026-028-292200-
NORTHEAST ARKANSAS

CITY           SKY/WX    TMP DP  RH WIND       PRES   REMARKS
CORNING        FAIR      77  64  65 S13       29.81F
JONESBORO      MOSUNNY   78  60  53 S14G22    29.80F
NEWPORT        CLOUDY    78  64  61 S17G24    29.80R
WALNUT RIDGE   PTSUNNY   77  61  57 S16       29.80S
BLYTHEVILLE    PTSUNNY   80  60  50 S14       29.82F
NW BLYTHEVILLE PTSUNNY   81  61  50 S14G21    29.82
$$

ARZ022-023-033-042-044-292200-
CENTRAL ARKANSAS

CITY           SKY/WX    TMP DP  RH WIND       PRES   REMARKS
LITTLE ROCK    CLOUDY    79  62  56 S16G29    29.76F
N LITTLE ROCK    N/A     78  62  57 S13G26    29.77F
JACKSONVILLE   MOSUNNY   80  64  58 SE13G23   29.76F
CONWAY           N/A     77  63  61 S14G21    29.73F
SEARCY         CLOUDY    79  64  60 S21G28    29.79F
HOT SPRINGS    PTSUNNY   78  63  59 S15       29.75F
RUSSELLVILLE   CLOUDY    76  59  55 S6        29.73F
$$

ARZ036-292200-
EAST ARKANSAS

CITY           SKY/WX    TMP DP  RH WIND       PRES   REMARKS
WEST MEMPHIS   CLOUDY    80  59  48 S22G28    29.79F
$$

ARZ050-053-066-070-073-292200-
SOUTHWEST ARKANSAS

CITY           SKY/WX    TMP DP  RH WIND       PRES   REMARKS
ARKADELPHIA    MOCLDY    80  65  59 S13G18    29.74F
CAMDEN         CLOUDY    81  57  44 SE9G17    29.74F
TEXARKANA      PTSUNNY   77  63  61 S14G22    29.72F
EL DORADO      CLOUDY    80  62  54 S13G24    29.75F
DE QUEEN       LGT RAIN  70  67  90 SW6       29.70F FOG
$$

ARZ056-057-069-292200-
SOUTHEAST ARKANSAS

CITY           SKY/WX    TMP DP  RH WIND       PRES   REMARKS
PINE BLUFF     CLOUDY    79  60  52 S18       29.78F
STUTTGART      CLOUDY    81  57  44 SE21G30   29.79F
MONTICELLO     CLOUDY    81  59  47 S15G26    29.78F

$$





USA.gov is the U.S. government's official web portal to all federal, state and local government web resources and services.